星链-2574 (STARLINK-2574 )

导读

STARLINK-2574是美国SpaceX公司星链星座中的一颗近地轨道通信卫星,于2021年5月4日发射入轨,属于星链一代的V1.5版本卫星。它重量约386kg,配备相控阵天线与太阳能电池阵,依托近地轨道为全球提供高速低延迟互联网服务,卫星设计寿命约5-7年,退役后会主动离轨销毁。作为星链组网的组成部分,它进一步完善了星座的全球覆盖能力,推动卫星互联网的商用部署。

基本信息
目录编号:
48395
目录名称:
STARLINK-2574
国际标识:
2021-038AU
轨道中心:
EARTH
卫星名称:
星链-2574
卫星全名:
星链-2574 (STARLINK-2574 )
卫星状态:
在轨 (已飞行1956 天)
发射日期:
2021-05-04 UTC
国别 :
美国 (US)
星等 :
--
该卫星已列入 空间交会检测服务 Space Conjunction Data Service (SCDS) ,当前飞行风险评估等级: 无高风险
轨道信息
数据来源 国际轨道数据 AOE轨道数据
星历时间 2026-09-11T12:46:21+0800
10小时前
查看轨道信息
2026-09-07T00:00:00+0800
4天前
查看轨道信息
半长轴 6848.885km 6848.85km
偏心率 0.0001564 0.0001252
轨道倾角 53.158° 53.160°
近地点辐角 84.164° 78.764°
升交点赤经 191.597° 212.700°
平近点角 275.954° 116.393°
近地点 469.676km 469.855km
远地点 471.82km 471.571km
周期 94.013分钟 94.013分钟
每日圈数 15.316974 15.317091
详细信息
固有亮度:
5
最大亮度:
2.5
卫星平台:
Starlink V1.0
覆盖范围:
全球
运营商:
太空探索技术公司
运营商所在国:
美国
制造商(研发单位):
太空探索技术公司
制造商所在国:
美国
使用方式:
暂无
卫星简介
星链(Starlink)计划是由太空探索技术公司(SpaceX)提出的一个巨型低轨卫星互联网星座项目,计划在2019年至2024年间在太空搭建由约1.2万颗卫星组成的“星链”网络,其中1584颗将部署在地球上空550千米处的近地轨道,并从2020年开始工作。该卫星仍在工作。
2D轨道图
3D轨道图
轨道高度分析图
轨道倾角分析图
轨道综合分析图
查看轨道综合分析图
交会数据列表
事件ID 空间交会对象 最接近时刻(TCA) 交会距离 交会风险概率(CRP) 交会风险指数(CRI) 操作
CDM_260911-223204-839506-050621
LUR-1 (60506)
2026-09-11T
22:32:15+0000
2.184 km
极远距离
2.251977E-6 低风险 0.42
CDM_260910-164504-839506-050625
LUR-1 (60506)
2026-09-10T
16:45:10+0000
2.519 km
极远距离
1.671423E-6 低风险 0.39
CDM_260910-151104-839506-050622
LUR-1 (60506)
2026-09-10T
15:11:06+0000
2.581 km
极远距离
1.602167E-6 低风险 0.39
CDM_260912-030904-839506-495121
2026-09-12T
03:09:22+0000
2.514 km
极远距离
1.37652E-6 低风险 0.38
CDM_260907-071204-839506-874321
2026-09-07T
07:12:35+0000
2.724 km
极远距离
1.329487E-6 低风险 0.37
CDM_260913-054504-839506-968021
2026-09-13T
05:45:48+0000
2.655 km
极远距离
1.290252E-6 低风险 0.37
CDM_260912-025104-839506-811621
2026-09-12T
02:51:01+0000
2.825 km
极远距离
9.103589E-7 极低风险 0.34
与全量物体交会距离演化趋势
与全量物体交会风险概率演化趋势